Year,Month,Day,Hour,Minute,Value (Times are PST for temperature in C)
2012,08,14,00,00,17.10
2012,08,14,00,01,17.10
2012,08,14,00,02,17.10
2012,08,14,00,03,17.10
2012,08,14,00,04,17.10
2012,08,14,00,05,17.10
2012,08,14,00,06,17.10
2012,08,14,00,07,17.10
2012,08,14,00,08,17.00
2012,08,14,00,09,17.00
2012,08,14,00,10,17.00
2012,08,14,00,11,17.00
2012,08,14,00,12,16.90
2012,08,14,00,13,16.90
2012,08,14,00,14,16.90
2012,08,14,00,15,16.90
2012,08,14,00,16,16.90
2012,08,14,00,17,16.90
2012,08,14,00,18,16.90
2012,08,14,00,19,16.90
2012,08,14,00,20,16.90
2012,08,14,00,21,16.90
2012,08,14,00,22,16.90
2012,08,14,00,23,16.90
2012,08,14,00,24,16.80
2012,08,14,00,25,16.80
2012,08,14,00,26,16.80
2012,08,14,00,27,16.80
2012,08,14,00,28,16.80
2012,08,14,00,29,16.80
2012,08,14,00,30,16.80
2012,08,14,00,31,16.80
2012,08,14,00,32,16.70
2012,08,14,00,33,16.70
2012,08,14,00,34,16.70
2012,08,14,00,35,16.70
2012,08,14,00,36,16.70
2012,08,14,00,37,16.70
2012,08,14,00,38,16.70
2012,08,14,00,39,16.70
2012,08,14,00,40,16.70
2012,08,14,00,41,16.60
2012,08,14,00,42,16.60
2012,08,14,00,43,16.60
2012,08,14,00,44,16.60
2012,08,14,00,45,16.60
2012,08,14,00,46,16.60
2012,08,14,00,47,16.60
2012,08,14,00,48,16.60
2012,08,14,00,49,16.60
2012,08,14,00,50,16.60
2012,08,14,00,51,16.60
2012,08,14,00,52,16.60
2012,08,14,00,53,16.60
2012,08,14,00,54,16.60
2012,08,14,00,55,16.60
2012,08,14,00,56,16.60
2012,08,14,00,57,16.60
2012,08,14,00,58,16.60
2012,08,14,00,59,16.60
2012,08,14,01,00,16.60
2012,08,14,01,01,16.60
2012,08,14,01,02,16.60
2012,08,14,01,03,16.60
2012,08,14,01,04,16.60
2012,08,14,01,05,16.60
2012,08,14,01,06,16.50
2012,08,14,01,07,16.50
2012,08,14,01,08,16.50
2012,08,14,01,09,16.50
2012,08,14,01,10,16.40
2012,08,14,01,11,16.40
2012,08,14,01,12,16.40
2012,08,14,01,13,16.40
2012,08,14,01,14,16.40
2012,08,14,01,15,16.40
2012,08,14,01,16,16.40
2012,08,14,01,17,16.40
2012,08,14,01,18,16.40
2012,08,14,01,19,16.40
2012,08,14,01,20,16.40
2012,08,14,01,21,16.40
2012,08,14,01,22,16.40
2012,08,14,01,23,16.40
2012,08,14,01,24,16.40
2012,08,14,01,25,16.30
2012,08,14,01,26,16.30
2012,08,14,01,27,16.30
2012,08,14,01,28,16.30
2012,08,14,01,29,16.40
2012,08,14,01,30,16.40
2012,08,14,01,31,16.40
2012,08,14,01,32,16.40
2012,08,14,01,33,16.30
2012,08,14,01,34,16.30
2012,08,14,01,35,16.30
2012,08,14,01,36,16.30
2012,08,14,01,37,16.30
2012,08,14,01,38,16.30
2012,08,14,01,39,16.20
2012,08,14,01,40,16.20
2012,08,14,01,41,16.20
2012,08,14,01,42,16.20
2012,08,14,01,43,16.20
2012,08,14,01,44,16.20
2012,08,14,01,45,16.10
2012,08,14,01,46,16.10
2012,08,14,01,47,16.10
2012,08,14,01,48,16.10
2012,08,14,01,49,16.10
2012,08,14,01,50,16.10
2012,08,14,01,51,16.10
2012,08,14,01,52,16.00
2012,08,14,01,53,16.00
2012,08,14,01,54,16.00
2012,08,14,01,55,16.00
2012,08,14,01,56,16.00
2012,08,14,01,57,16.00
2012,08,14,01,58,16.00
2012,08,14,01,59,16.00
2012,08,14,02,00,16.00
2012,08,14,02,01,16.00
2012,08,14,02,02,16.00
2012,08,14,02,03,16.00
2012,08,14,02,04,16.00
2012,08,14,02,05,16.00
2012,08,14,02,06,16.10
2012,08,14,02,07,16.10
2012,08,14,02,08,16.10
2012,08,14,02,09,16.10
2012,08,14,02,10,16.10
2012,08,14,02,11,16.10
2012,08,14,02,12,16.10
2012,08,14,02,13,16.10
2012,08,14,02,14,16.10
2012,08,14,02,15,16.10
2012,08,14,02,16,16.10
2012,08,14,02,17,16.10
2012,08,14,02,18,16.10
2012,08,14,02,19,16.10
2012,08,14,02,20,16.10
2012,08,14,02,21,16.10
2012,08,14,02,22,16.10
2012,08,14,02,23,16.10
2012,08,14,02,24,16.10
2012,08,14,02,25,16.00
2012,08,14,02,26,16.00
2012,08,14,02,27,16.00
2012,08,14,02,28,16.00
2012,08,14,02,29,16.00
2012,08,14,02,30,16.00
2012,08,14,02,31,15.90
2012,08,14,02,32,15.90
2012,08,14,02,33,15.90
2012,08,14,02,34,15.90
2012,08,14,02,35,15.90
2012,08,14,02,36,15.90
2012,08,14,02,37,15.80
2012,08,14,02,38,15.80
2012,08,14,02,39,15.80
2012,08,14,02,40,15.80
2012,08,14,02,41,15.80
2012,08,14,02,42,15.80
2012,08,14,02,43,15.80
2012,08,14,02,44,15.80
2012,08,14,02,45,15.80
2012,08,14,02,46,15.80
2012,08,14,02,47,15.80
2012,08,14,02,48,15.70
2012,08,14,02,49,15.70
2012,08,14,02,50,15.70
2012,08,14,02,51,15.70
2012,08,14,02,52,15.70
2012,08,14,02,53,15.70
2012,08,14,02,54,15.70
2012,08,14,02,55,15.70
2012,08,14,02,56,15.70
2012,08,14,02,57,15.70
2012,08,14,02,58,15.70
2012,08,14,02,59,15.70
2012,08,14,03,00,15.70
2012,08,14,03,01,15.70
2012,08,14,03,02,15.70
2012,08,14,03,03,15.70
2012,08,14,03,04,15.70
2012,08,14,03,05,15.70
2012,08,14,03,06,15.70
2012,08,14,03,07,15.70
2012,08,14,03,08,15.70
2012,08,14,03,09,15.70
2012,08,14,03,10,15.70
2012,08,14,03,11,15.70
2012,08,14,03,12,15.70
2012,08,14,03,13,15.70
2012,08,14,03,14,15.70
2012,08,14,03,15,15.70
2012,08,14,03,16,15.70
2012,08,14,03,17,15.60
2012,08,14,03,18,15.60
2012,08,14,03,19,15.60
2012,08,14,03,20,15.60
2012,08,14,03,21,15.60
2012,08,14,03,22,15.60
2012,08,14,03,23,15.60
2012,08,14,03,24,15.60
2012,08,14,03,25,15.60
2012,08,14,03,26,15.60
2012,08,14,03,27,15.60
2012,08,14,03,28,15.60
2012,08,14,03,29,15.60
2012,08,14,03,30,15.60
2012,08,14,03,31,15.60
2012,08,14,03,32,15.60
2012,08,14,03,33,15.50
2012,08,14,03,34,15.50
2012,08,14,03,35,15.50
2012,08,14,03,36,15.50
2012,08,14,03,37,15.50
2012,08,14,03,38,15.40
2012,08,14,03,39,15.40
2012,08,14,03,40,15.50
2012,08,14,03,41,15.50
2012,08,14,03,42,15.50
2012,08,14,03,43,15.50
2012,08,14,03,44,15.50
2012,08,14,03,45,15.50
2012,08,14,03,46,15.50
2012,08,14,03,47,15.50
2012,08,14,03,48,15.40
2012,08,14,03,49,15.40
2012,08,14,03,50,15.40
2012,08,14,03,51,15.40
2012,08,14,03,52,15.40
2012,08,14,03,53,15.40
2012,08,14,03,54,15.40
2012,08,14,03,55,15.40
2012,08,14,03,56,15.40
2012,08,14,03,57,15.30
2012,08,14,03,58,15.30
2012,08,14,03,59,15.30
2012,08,14,04,00,15.30
2012,08,14,04,01,15.30
2012,08,14,04,02,15.30
2012,08,14,04,03,15.30
2012,08,14,04,04,15.30
2012,08,14,04,05,15.30
2012,08,14,04,06,15.30
2012,08,14,04,07,15.30
2012,08,14,04,08,15.30
2012,08,14,04,09,15.30
2012,08,14,04,10,15.30
2012,08,14,04,11,15.30
2012,08,14,04,12,15.30
2012,08,14,04,13,15.20
2012,08,14,04,14,15.20
2012,08,14,04,15,15.20
2012,08,14,04,16,15.20
2012,08,14,04,17,15.20
2012,08,14,04,18,15.20
2012,08,14,04,19,15.10
2012,08,14,04,20,15.10
2012,08,14,04,21,15.10
2012,08,14,04,22,15.00
2012,08,14,04,23,15.00
2012,08,14,04,24,15.00
2012,08,14,04,25,15.00
2012,08,14,04,26,15.00
2012,08,14,04,27,15.00
2012,08,14,04,28,15.00
2012,08,14,04,29,15.00
2012,08,14,04,30,15.00
2012,08,14,04,31,15.00
2012,08,14,04,32,15.00
2012,08,14,04,33,15.00
2012,08,14,04,34,15.00
2012,08,14,04,35,15.00
2012,08,14,04,36,15.00
2012,08,14,04,37,15.00
2012,08,14,04,38,15.00
2012,08,14,04,39,15.00
2012,08,14,04,40,14.90
2012,08,14,04,41,14.90
2012,08,14,04,42,14.90
2012,08,14,04,43,14.90
2012,08,14,04,44,14.90
2012,08,14,04,45,14.90
2012,08,14,04,46,14.90
2012,08,14,04,47,14.90
2012,08,14,04,48,14.90
2012,08,14,04,49,14.90
2012,08,14,04,50,14.90
2012,08,14,04,51,14.90
2012,08,14,04,52,14.90
2012,08,14,04,53,14.90
2012,08,14,04,54,14.90
2012,08,14,04,55,14.90
2012,08,14,04,56,14.90
2012,08,14,04,57,14.80
2012,08,14,04,58,14.80
2012,08,14,04,59,14.80
2012,08,14,05,00,14.80
2012,08,14,05,01,14.80
2012,08,14,05,02,14.80
2012,08,14,05,03,14.80
2012,08,14,05,04,14.80
2012,08,14,05,05,14.80
2012,08,14,05,06,14.70
2012,08,14,05,07,14.70
2012,08,14,05,08,14.70
2012,08,14,05,09,14.70
2012,08,14,05,10,14.70
2012,08,14,05,11,14.70
2012,08,14,05,12,14.60
2012,08,14,05,13,14.60
2012,08,14,05,14,14.60
2012,08,14,05,15,14.60
2012,08,14,05,16,14.60
2012,08,14,05,17,14.60
2012,08,14,05,18,14.60
2012,08,14,05,19,14.50
2012,08,14,05,20,14.50
2012,08,14,05,21,14.50
2012,08,14,05,22,14.50
2012,08,14,05,23,14.40
2012,08,14,05,24,14.40
2012,08,14,05,25,14.40
2012,08,14,05,26,14.40
2012,08,14,05,27,14.40
2012,08,14,05,28,14.40
2012,08,14,05,29,14.40
2012,08,14,05,30,14.50
2012,08,14,05,31,14.50
2012,08,14,05,32,14.50
2012,08,14,05,33,14.50
2012,08,14,05,34,14.60
2012,08,14,05,35,14.60
2012,08,14,05,36,14.60
2012,08,14,05,37,14.60
2012,08,14,05,38,14.60
2012,08,14,05,39,14.60
2012,08,14,05,40,14.60
2012,08,14,05,41,14.60
2012,08,14,05,42,14.60
2012,08,14,05,43,14.60
2012,08,14,05,44,14.60
2012,08,14,05,45,14.60
2012,08,14,05,46,14.60
2012,08,14,05,47,14.60
2012,08,14,05,48,14.60
2012,08,14,05,49,14.60
2012,08,14,05,50,14.60
2012,08,14,05,51,14.60
2012,08,14,05,52,14.60
2012,08,14,05,53,14.60
2012,08,14,05,54,14.60
2012,08,14,05,55,14.60
2012,08,14,05,56,14.60
2012,08,14,05,57,14.60
2012,08,14,05,58,14.60
2012,08,14,05,59,14.60
2012,08,14,06,00,14.60
2012,08,14,06,01,14.50
2012,08,14,06,02,14.50
2012,08,14,06,03,14.50
2012,08,14,06,04,14.50
2012,08,14,06,05,14.50
2012,08,14,06,06,14.50
2012,08,14,06,07,14.50
2012,08,14,06,08,14.50
2012,08,14,06,09,14.50
2012,08,14,06,10,14.50
2012,08,14,06,11,14.40
2012,08,14,06,12,14.40
2012,08,14,06,13,14.40
2012,08,14,06,14,14.40
2012,08,14,06,15,14.40
2012,08,14,06,16,14.40
2012,08,14,06,17,14.40
2012,08,14,06,18,14.40
2012,08,14,06,19,14.40
2012,08,14,06,20,14.40
2012,08,14,06,21,14.40
2012,08,14,06,22,14.40
2012,08,14,06,23,14.40
2012,08,14,06,24,14.40
2012,08,14,06,25,14.40
2012,08,14,06,26,14.40
2012,08,14,06,27,14.40
2012,08,14,06,28,14.40
2012,08,14,06,29,14.40
2012,08,14,06,30,14.40
2012,08,14,06,31,14.40
2012,08,14,06,32,14.40
2012,08,14,06,33,14.40
2012,08,14,06,34,14.40
2012,08,14,06,35,14.40
2012,08,14,06,36,14.40
2012,08,14,06,37,14.40
2012,08,14,06,38,14.40
2012,08,14,06,39,14.40
2012,08,14,06,40,14.40
2012,08,14,06,41,14.40
2012,08,14,06,42,14.40
2012,08,14,06,43,14.40
2012,08,14,06,44,14.40
2012,08,14,06,45,14.40
2012,08,14,06,46,14.40
2012,08,14,06,47,14.40
2012,08,14,06,48,14.40
2012,08,14,06,49,14.40
2012,08,14,06,50,14.40
2012,08,14,06,51,14.40
2012,08,14,06,52,14.40
2012,08,14,06,53,14.40
2012,08,14,06,54,14.40
2012,08,14,06,55,14.40
2012,08,14,06,56,14.40
2012,08,14,06,57,14.40
2012,08,14,06,58,14.40
2012,08,14,06,59,14.40
2012,08,14,07,00,14.40
2012,08,14,07,01,14.40
2012,08,14,07,02,14.50
2012,08,14,07,03,14.50
2012,08,14,07,04,14.50
2012,08,14,07,05,14.50
2012,08,14,07,06,14.60
2012,08,14,07,07,14.60
2012,08,14,07,08,14.60
2012,08,14,07,09,14.60
2012,08,14,07,10,14.60
2012,08,14,07,11,14.60
2012,08,14,07,12,14.60
2012,08,14,07,13,14.60
2012,08,14,07,14,14.60
2012,08,14,07,15,14.70
2012,08,14,07,16,14.70
2012,08,14,07,17,14.70
2012,08,14,07,18,14.70
2012,08,14,07,19,14.70
2012,08,14,07,20,14.70
2012,08,14,07,21,14.70
2012,08,14,07,22,14.70
2012,08,14,07,23,14.80
2012,08,14,07,24,14.80
2012,08,14,07,25,14.80
2012,08,14,07,26,14.80
2012,08,14,07,27,14.90
2012,08,14,07,28,14.90
2012,08,14,07,29,14.90
2012,08,14,07,30,15.00
2012,08,14,07,31,15.00
2012,08,14,07,32,15.00
2012,08,14,07,33,15.00
2012,08,14,07,34,15.00
2012,08,14,07,35,15.00
2012,08,14,07,36,15.00
2012,08,14,07,37,15.00
2012,08,14,07,38,15.00
2012,08,14,07,39,15.00
2012,08,14,07,40,15.00
2012,08,14,07,41,15.00
2012,08,14,07,42,15.00
2012,08,14,07,43,15.00
2012,08,14,07,44,15.00
2012,08,14,07,45,15.00
2012,08,14,07,46,15.00
2012,08,14,07,47,15.00
2012,08,14,07,48,15.00
2012,08,14,07,49,15.00
2012,08,14,07,50,15.00
2012,08,14,07,51,15.10
2012,08,14,07,52,15.10
2012,08,14,07,53,15.20
2012,08,14,07,54,15.20
2012,08,14,07,55,15.30
2012,08,14,07,56,15.30
2012,08,14,07,57,15.30
2012,08,14,07,58,15.40
2012,08,14,07,59,15.40
2012,08,14,08,00,15.50
2012,08,14,08,01,15.50
2012,08,14,08,02,15.50
2012,08,14,08,03,15.60
2012,08,14,08,04,15.60
2012,08,14,08,05,15.60
2012,08,14,08,06,15.60
2012,08,14,08,07,15.70
2012,08,14,08,08,15.70
2012,08,14,08,09,15.70
2012,08,14,08,10,15.80
2012,08,14,08,11,15.80
2012,08,14,08,12,15.80
2012,08,14,08,13,15.90
2012,08,14,08,14,15.90
2012,08,14,08,15,15.90
2012,08,14,08,16,16.00
2012,08,14,08,17,16.10
2012,08,14,08,18,16.10
2012,08,14,08,19,16.10
2012,08,14,08,20,16.20
2012,08,14,08,21,16.20
2012,08,14,08,22,16.20
2012,08,14,08,23,16.30
2012,08,14,08,24,16.30
2012,08,14,08,25,16.30
2012,08,14,08,26,16.40
2012,08,14,08,27,16.40
2012,08,14,08,28,16.40
2012,08,14,08,29,16.50
2012,08,14,08,30,16.50
2012,08,14,08,31,16.60
2012,08,14,08,32,16.60
2012,08,14,08,33,16.70
2012,08,14,08,34,16.70
2012,08,14,08,35,16.70
2012,08,14,08,36,16.80
2012,08,14,08,37,16.80
2012,08,14,08,38,16.90
2012,08,14,08,39,16.90
2012,08,14,08,40,17.00
2012,08,14,08,41,17.00
2012,08,14,08,42,17.10
2012,08,14,08,43,17.10
2012,08,14,08,44,17.20
2012,08,14,08,45,17.20
2012,08,14,08,46,17.20
2012,08,14,08,47,17.30
2012,08,14,08,48,17.30
2012,08,14,08,49,17.40
2012,08,14,08,50,17.40
2012,08,14,08,51,17.50
2012,08,14,08,52,17.50
2012,08,14,08,53,17.60
2012,08,14,08,54,17.60
2012,08,14,08,55,17.70
2012,08,14,08,56,17.70
2012,08,14,08,57,17.80
2012,08,14,08,58,17.80
2012,08,14,08,59,17.90
2012,08,14,09,00,17.90
2012,08,14,09,01,18.00
2012,08,14,09,02,18.10
2012,08,14,09,03,18.10
2012,08,14,09,04,18.20
2012,08,14,09,05,18.20
2012,08,14,09,06,18.30
2012,08,14,09,07,18.30
2012,08,14,09,08,18.40
2012,08,14,09,09,18.50
2012,08,14,09,10,18.50
2012,08,14,09,11,18.60
2012,08,14,09,12,18.60
2012,08,14,09,13,18.70
2012,08,14,09,14,18.70
2012,08,14,09,15,18.80
2012,08,14,09,16,18.80
2012,08,14,09,17,18.80
2012,08,14,09,18,18.80
2012,08,14,09,19,18.90
2012,08,14,09,20,18.90
2012,08,14,09,21,18.90
2012,08,14,09,22,19.00
2012,08,14,09,23,19.00
2012,08,14,09,24,19.00
2012,08,14,09,25,19.10
2012,08,14,09,26,19.10
2012,08,14,09,27,19.10
2012,08,14,09,28,19.20
2012,08,14,09,29,19.20
2012,08,14,09,30,19.30
2012,08,14,09,31,19.30
2012,08,14,09,32,19.40
2012,08,14,09,33,19.40
2012,08,14,09,34,19.50
2012,08,14,09,35,19.50
2012,08,14,09,36,19.60
2012,08,14,09,37,19.60
2012,08,14,09,38,19.60
2012,08,14,09,39,19.60
2012,08,14,09,40,19.60
2012,08,14,09,41,19.60
2012,08,14,09,42,19.60
2012,08,14,09,43,19.70
2012,08,14,09,44,19.70
2012,08,14,09,45,19.70
2012,08,14,09,46,19.80
2012,08,14,09,47,19.80
2012,08,14,09,48,19.90
2012,08,14,09,49,19.90
2012,08,14,09,50,20.00
2012,08,14,09,51,20.00
2012,08,14,09,52,20.10
2012,08,14,09,53,20.10
2012,08,14,09,54,20.20
2012,08,14,09,55,20.20
2012,08,14,09,56,20.30
2012,08,14,09,57,20.30
2012,08,14,09,58,20.40
2012,08,14,09,59,20.50
2012,08,14,10,00,20.50
2012,08,14,10,01,20.60
2012,08,14,10,02,20.60
2012,08,14,10,03,20.60
2012,08,14,10,04,20.60
2012,08,14,10,05,20.70
2012,08,14,10,06,20.70
2012,08,14,10,07,20.70
2012,08,14,10,08,20.70
2012,08,14,10,09,20.70
2012,08,14,10,10,20.70
2012,08,14,10,11,20.70
2012,08,14,10,12,20.80
2012,08,14,10,13,20.80
2012,08,14,10,14,20.80
2012,08,14,10,15,20.90
2012,08,14,10,16,20.90
2012,08,14,10,17,20.90
2012,08,14,10,18,21.00
2012,08,14,10,19,21.00
2012,08,14,10,20,21.10
2012,08,14,10,21,21.10
2012,08,14,10,22,21.20
2012,08,14,10,23,21.20
2012,08,14,10,24,21.20
2012,08,14,10,25,21.20
2012,08,14,10,26,21.30
2012,08,14,10,27,21.30
2012,08,14,10,28,21.30
2012,08,14,10,29,21.40
2012,08,14,10,30,21.50
2012,08,14,10,31,21.50
2012,08,14,10,32,21.60
2012,08,14,10,33,21.60
2012,08,14,10,34,21.70
2012,08,14,10,35,21.70
2012,08,14,10,36,21.70
2012,08,14,10,37,21.80
2012,08,14,10,38,21.80
2012,08,14,10,39,21.90
2012,08,14,10,40,22.00
2012,08,14,10,41,22.00
2012,08,14,10,42,22.10
2012,08,14,10,43,22.20
2012,08,14,10,44,22.30
2012,08,14,10,45,22.30
2012,08,14,10,46,22.30
2012,08,14,10,47,22.40
2012,08,14,10,48,22.40
2012,08,14,10,49,22.40
2012,08,14,10,50,22.40
2012,08,14,10,51,22.40
2012,08,14,10,52,22.40
2012,08,14,10,53,22.40
2012,08,14,10,54,22.40
2012,08,14,10,55,22.40
2012,08,14,10,56,22.40
2012,08,14,10,57,22.40
2012,08,14,10,58,22.40
2012,08,14,10,59,22.40
2012,08,14,11,00,22.40
2012,08,14,11,01,22.50
2012,08,14,11,02,22.50
2012,08,14,11,03,22.60
2012,08,14,11,04,22.60
2012,08,14,11,05,22.70
2012,08,14,11,06,22.70
2012,08,14,11,07,22.80
2012,08,14,11,08,22.80
2012,08,14,11,09,22.90
2012,08,14,11,10,22.90
2012,08,14,11,11,23.00
2012,08,14,11,12,23.00
2012,08,14,11,13,23.10
2012,08,14,11,14,23.10
2012,08,14,11,15,23.20
2012,08,14,11,16,23.20
2012,08,14,11,17,23.20
2012,08,14,11,18,23.20
2012,08,14,11,19,23.20
2012,08,14,11,20,23.30
2012,08,14,11,21,23.30
2012,08,14,11,22,23.30
2012,08,14,11,23,23.30
2012,08,14,11,24,23.30
2012,08,14,11,25,23.30
2012,08,14,11,26,23.30
2012,08,14,11,27,23.30
2012,08,14,11,28,23.30
2012,08,14,11,29,23.30
2012,08,14,11,30,23.30
2012,08,14,11,31,23.30
2012,08,14,11,32,23.30
2012,08,14,11,33,23.30
2012,08,14,11,34,23.40
2012,08,14,11,35,23.40
2012,08,14,11,36,23.40
2012,08,14,11,37,23.40
2012,08,14,11,38,23.50
2012,08,14,11,39,23.50
2012,08,14,11,40,23.60
2012,08,14,11,41,23.60
2012,08,14,11,42,23.70
2012,08,14,11,43,23.70
2012,08,14,11,44,23.80
2012,08,14,11,45,23.80
2012,08,14,11,46,23.80
2012,08,14,11,47,23.80
2012,08,14,11,48,23.80
2012,08,14,11,49,23.70
2012,08,14,11,50,23.70
2012,08,14,11,51,23.70
2012,08,14,11,52,23.70
2012,08,14,11,53,23.70
2012,08,14,11,54,23.70
2012,08,14,11,55,23.70
2012,08,14,11,56,23.70
2012,08,14,11,57,23.70
2012,08,14,11,58,23.80
2012,08,14,11,59,23.80
2012,08,14,12,00,23.90
2012,08,14,12,01,24.00
2012,08,14,12,02,24.00
2012,08,14,12,03,24.10
2012,08,14,12,04,24.10
2012,08,14,12,05,24.20
2012,08,14,12,06,24.20
2012,08,14,12,07,24.20
2012,08,14,12,08,24.20
2012,08,14,12,09,24.20
2012,08,14,12,10,24.20
2012,08,14,12,11,24.30
2012,08,14,12,12,24.30
2012,08,14,12,13,24.30
2012,08,14,12,14,24.40
2012,08,14,12,15,24.40
2012,08,14,12,16,24.40
2012,08,14,12,17,24.40
2012,08,14,12,18,24.40
2012,08,14,12,19,24.50
2012,08,14,12,20,24.50
2012,08,14,12,21,24.50
2012,08,14,12,22,24.40
2012,08,14,12,23,24.40
2012,08,14,12,24,24.50
2012,08,14,12,25,24.50
2012,08,14,12,26,24.50
2012,08,14,12,27,24.60
2012,08,14,12,28,24.60
2012,08,14,12,29,24.70
2012,08,14,12,30,24.70
2012,08,14,12,31,24.70
2012,08,14,12,32,24.70
2012,08,14,12,33,24.70
2012,08,14,12,34,24.70
2012,08,14,12,35,24.70
2012,08,14,12,36,24.70
2012,08,14,12,37,24.70
2012,08,14,12,38,24.70
2012,08,14,12,39,24.60
2012,08,14,12,40,24.50
2012,08,14,12,41,24.40
2012,08,14,12,42,24.40
2012,08,14,12,43,24.30
2012,08,14,12,44,24.30
2012,08,14,12,45,24.20
2012,08,14,12,46,24.20
2012,08,14,12,47,24.30
2012,08,14,12,48,24.30
2012,08,14,12,49,24.40
2012,08,14,12,50,24.40
2012,08,14,12,51,24.50
2012,08,14,12,52,24.60
2012,08,14,12,53,24.60
2012,08,14,12,54,24.70
2012,08,14,12,55,24.70
2012,08,14,12,56,24.70
2012,08,14,12,57,24.70
2012,08,14,12,58,24.70
2012,08,14,12,59,24.70
2012,08,14,13,00,24.70
2012,08,14,13,01,24.60
2012,08,14,13,02,24.60
2012,08,14,13,03,24.60
2012,08,14,13,04,24.50
2012,08,14,13,05,24.50
2012,08,14,13,06,24.50
2012,08,14,13,07,24.40
2012,08,14,13,08,24.50
2012,08,14,13,09,24.50
2012,08,14,13,10,24.60
2012,08,14,13,11,24.60
2012,08,14,13,12,24.70
2012,08,14,13,13,24.80
2012,08,14,13,14,24.80
2012,08,14,13,15,24.90
2012,08,14,13,16,25.00
2012,08,14,13,17,25.10
2012,08,14,13,18,25.10
2012,08,14,13,19,25.20
2012,08,14,13,20,25.20
2012,08,14,13,21,25.30
2012,08,14,13,22,25.30
2012,08,14,13,23,25.30
2012,08,14,13,24,25.30
2012,08,14,13,25,25.30
2012,08,14,13,26,25.20
2012,08,14,13,27,25.20
2012,08,14,13,28,25.10
2012,08,14,13,29,25.10
2012,08,14,13,30,25.10
2012,08,14,13,31,25.10
2012,08,14,13,32,25.20
2012,08,14,13,33,25.20
2012,08,14,13,34,25.30
2012,08,14,13,35,25.40
2012,08,14,13,36,25.50
2012,08,14,13,37,25.50
2012,08,14,13,38,25.60
2012,08,14,13,39,25.70
2012,08,14,13,40,25.70
2012,08,14,13,41,25.80
2012,08,14,13,42,25.80
2012,08,14,13,43,25.80
2012,08,14,13,44,25.70
2012,08,14,13,45,25.60
2012,08,14,13,46,25.50
2012,08,14,13,47,25.40
2012,08,14,13,48,25.30
2012,08,14,13,49,25.30
2012,08,14,13,50,25.30
2012,08,14,13,51,25.20
2012,08,14,13,52,25.10
2012,08,14,13,53,25.10
2012,08,14,13,54,25.10
2012,08,14,13,55,25.20
2012,08,14,13,56,25.30
2012,08,14,13,57,25.30
2012,08,14,13,58,25.30
2012,08,14,13,59,25.30
2012,08,14,14,00,25.20
2012,08,14,14,01,25.10
2012,08,14,14,02,25.00
2012,08,14,14,03,24.90
2012,08,14,14,04,24.80
2012,08,14,14,05,24.80
2012,08,14,14,06,24.90
2012,08,14,14,07,24.80
2012,08,14,14,08,24.80
2012,08,14,14,09,24.80
2012,08,14,14,10,24.80
2012,08,14,14,11,24.90
2012,08,14,14,12,24.90
2012,08,14,14,13,25.00
2012,08,14,14,14,25.10
2012,08,14,14,15,25.20
2012,08,14,14,16,25.30
2012,08,14,14,17,25.30
2012,08,14,14,18,25.20
2012,08,14,14,19,25.20
2012,08,14,14,20,25.10
2012,08,14,14,21,25.10
2012,08,14,14,22,25.20
2012,08,14,14,23,25.20
2012,08,14,14,24,25.30
2012,08,14,14,25,25.40
2012,08,14,14,26,25.50
2012,08,14,14,27,25.70
2012,08,14,14,28,25.80
2012,08,14,14,29,25.90
2012,08,14,14,30,25.90
2012,08,14,14,31,25.90
2012,08,14,14,32,25.90
2012,08,14,14,33,25.90
2012,08,14,14,34,26.00
2012,08,14,14,35,26.10
2012,08,14,14,36,26.20
2012,08,14,14,37,26.30
2012,08,14,14,38,26.40
2012,08,14,14,39,26.40
2012,08,14,14,40,26.50
2012,08,14,14,41,26.50
2012,08,14,14,42,26.40
2012,08,14,14,43,26.40
2012,08,14,14,44,26.40
2012,08,14,14,45,26.20
2012,08,14,14,46,26.20
2012,08,14,14,47,26.00
2012,08,14,14,48,25.90
2012,08,14,14,49,25.80
2012,08,14,14,50,25.70
2012,08,14,14,51,25.60
2012,08,14,14,52,25.50
2012,08,14,14,53,25.40
2012,08,14,14,54,25.40
2012,08,14,14,55,25.40
2012,08,14,14,56,25.50
2012,08,14,14,57,25.50
2012,08,14,14,58,25.40
2012,08,14,14,59,25.40
2012,08,14,15,00,25.40
2012,08,14,15,01,25.40
2012,08,14,15,02,25.30
2012,08,14,15,03,25.30
2012,08,14,15,04,25.40
2012,08,14,15,05,25.40
2012,08,14,15,06,25.40
2012,08,14,15,07,25.50
2012,08,14,15,08,25.50
2012,08,14,15,09,25.50
2012,08,14,15,10,25.50
2012,08,14,15,11,25.40
2012,08,14,15,12,25.40
2012,08,14,15,13,25.30
2012,08,14,15,14,25.20
2012,08,14,15,15,25.10
2012,08,14,15,16,25.10
2012,08,14,15,17,25.10
2012,08,14,15,18,25.10
2012,08,14,15,19,25.10
2012,08,14,15,20,25.10
2012,08,14,15,21,25.10
2012,08,14,15,22,25.10
2012,08,14,15,23,25.10
2012,08,14,15,24,25.00
2012,08,14,15,25,25.00
2012,08,14,15,26,24.90
2012,08,14,15,27,24.90
2012,08,14,15,28,24.80
2012,08,14,15,29,24.80
2012,08,14,15,30,24.80
2012,08,14,15,31,24.80
2012,08,14,15,32,24.80
2012,08,14,15,33,24.80
2012,08,14,15,34,24.80
2012,08,14,15,35,24.90
2012,08,14,15,36,24.90
2012,08,14,15,37,24.90
2012,08,14,15,38,24.90
2012,08,14,15,39,24.90
2012,08,14,15,40,25.00
2012,08,14,15,41,25.10
2012,08,14,15,42,25.10
2012,08,14,15,43,25.10
2012,08,14,15,44,25.20
2012,08,14,15,45,25.20
2012,08,14,15,46,25.30
2012,08,14,15,47,25.40
2012,08,14,15,48,25.40
2012,08,14,15,49,25.50
2012,08,14,15,50,25.60
2012,08,14,15,51,25.70
2012,08,14,15,52,25.80
2012,08,14,15,53,25.90
2012,08,14,15,54,26.00
2012,08,14,15,55,26.10
2012,08,14,15,56,26.20
2012,08,14,15,57,26.30
2012,08,14,15,58,26.40
2012,08,14,15,59,26.40
2012,08,14,16,00,26.40
2012,08,14,16,01,26.40
2012,08,14,16,02,26.30
2012,08,14,16,03,26.20
2012,08,14,16,04,26.10
2012,08,14,16,05,25.90
2012,08,14,16,06,25.90
2012,08,14,16,07,25.80
2012,08,14,16,08,25.70
2012,08,14,16,09,25.60
2012,08,14,16,10,25.60
2012,08,14,16,11,25.60
2012,08,14,16,12,25.60
2012,08,14,16,13,25.60
2012,08,14,16,14,25.60
2012,08,14,16,15,25.60
2012,08,14,16,16,25.70
2012,08,14,16,17,25.70
2012,08,14,16,18,25.70
2012,08,14,16,19,25.60
2012,08,14,16,20,25.60
2012,08,14,16,21,25.60
2012,08,14,16,22,25.60
2012,08,14,16,23,25.50
2012,08,14,16,24,25.50
2012,08,14,16,25,25.50
2012,08,14,16,26,25.50
2012,08,14,16,27,25.60
2012,08,14,16,28,25.60
2012,08,14,16,29,25.60
2012,08,14,16,30,25.60
2012,08,14,16,31,25.70
2012,08,14,16,32,25.70
2012,08,14,16,33,25.70
2012,08,14,16,34,25.80
2012,08,14,16,35,25.80
2012,08,14,16,36,25.80
2012,08,14,16,37,25.80
2012,08,14,16,38,25.80
2012,08,14,16,39,25.80
2012,08,14,16,40,25.80
2012,08,14,16,41,25.80
2012,08,14,16,42,25.80
2012,08,14,16,43,25.80
2012,08,14,16,44,25.80
2012,08,14,16,45,25.80
2012,08,14,16,46,25.80
2012,08,14,16,47,25.80
2012,08,14,16,48,25.80
2012,08,14,16,49,25.70
2012,08,14,16,50,25.70
2012,08,14,16,51,25.70
2012,08,14,16,52,25.60
2012,08,14,16,53,25.60
2012,08,14,16,54,25.50
2012,08,14,16,55,25.40
2012,08,14,16,56,25.30
2012,08,14,16,57,25.30
2012,08,14,16,58,25.30
2012,08,14,16,59,25.40
2012,08,14,17,00,25.40
2012,08,14,17,01,25.40
2012,08,14,17,02,25.30
2012,08,14,17,03,25.30
2012,08,14,17,04,25.30
2012,08,14,17,05,25.30
2012,08,14,17,06,25.30
2012,08,14,17,07,25.30
2012,08,14,17,08,25.30
2012,08,14,17,09,25.30
2012,08,14,17,10,25.30
2012,08,14,17,11,25.30
2012,08,14,17,12,25.30
2012,08,14,17,13,25.30
2012,08,14,17,14,25.30
2012,08,14,17,15,25.30
2012,08,14,17,16,25.40
2012,08,14,17,17,25.40
2012,08,14,17,18,25.40
2012,08,14,17,19,25.40